Location: Jackson Park
(37.2862°N, 79.9123°W)
Time: 10:09:17
(UTC+00:00)

SR - Pass Details

Date: 17 May 2026
Orbit: 567 x 853 km, 66.7° (Epoch: 10 June)

Event Time Altitude Azimuth Distance (km) Brightness Sun altitude
Rises 12:44:59 0° 243° (WSW) 2,976 ? 29.0°
Reaches altitude 10° 12:47:38 10° 258° (WSW) 2,119 ? 29.5°
Maximum altitude 12:51:26 23° 310° (NW) 1,505 ? 30.3°
Drops below altitude 10° 12:55:31 10° 2° (N) 2,280 ? 31.1°
Sets 12:58:30 0° 17° (NNE) 3,263 ? 31.7°
